Highgate, VT

10:52 PM EDT on August 24, 2019 (GMT -0400)
Franklin County State

Weather History for KFSO - June, 2019

Change the Weather History Date:

Sunday, June 9, 2019

  Actual Average (WUND) Record (WUND)
Temperature  
Mean Temperature 68 °F -  
Max Temperature 86 °F - - (-1)
Min Temperature 49 °F - - (-1)
Cooling Degree Days 2    
Growing Degree Days 18 (Base 50)    
Moisture  
Dew Point 42 °F    
Average Humidity 44    
Maximum Humidity 83    
Minimum Humidity 11    
Precipitation  
Precipitation 0.00 in - - ()
Sea Level Pressure  
Sea Level Pressure 30.25 in    
Wind  
Wind Speed 4 mph (South)    
Max Wind Speed 9 mph    
Max Gust Speed -    
Visibility 10 miles    
Events      
Averages and records for this station are not official NWS values.
T = Trace of Precipitation, MM = Missing Value Source: NWS Daily Summary

Daily Weather History Graph

Daily Weather History Graph

Search for Another Location

Airport or City:

Astronomy

Jun. 09, 2019 Rise Set
Actual Time 5:06 AM EDT 8:37 PM EDT
Civil Twilight 4:29 AM EDT 9:14 PM EDT
Nautical Twilight 3:40 AM EDT 10:03 PM EDT
Astronomical Twilight 2:37 AM EDT 11:06 PM EDT
Moon 11:51 AM EDT (6/9) 1:07 AM EDT (6/9)
Length of Visible Light 16h 45m
Length of Day
15h 31m
Waxing Crescent, 43% of the Moon is Illuminated
Jun 9
Waxing Crescent
Jun 10
First Quarter
Jun 17
Full
Jun 25
Last Quarter
Jul 2
New

Hourly Weather History & Observations

Time (EDT) Temp. Dew Point Humidity Pressure Visibility Wind Dir Wind Speed Gust Speed Precip Events Conditions
12:16 AM 55.6 °F 45.7 °F 69% 30.26 in 10.0 mi SE 3.5 mph - N/A   Mostly Cloudy
12:35 AM 55.4 °F 44.8 °F 67% 30.26 in 10.0 mi SE 3.5 mph - N/A   Scattered Clouds
12:56 AM 55.4 °F 44.1 °F 66% 30.26 in 10.0 mi Calm Calm - N/A   Clear
1:16 AM 54.5 °F 43.3 °F 66% 30.26 in 10.0 mi SE 3.5 mph - N/A   Clear
1:35 AM 54.0 °F 42.8 °F 66% 30.26 in 10.0 mi ESE 4.6 mph - N/A   Clear
1:56 AM 54.1 °F 42.8 °F 66% 30.26 in 10.0 mi ESE 3.5 mph - N/A   Clear
2:15 AM 53.8 °F 43.0 °F 67% 30.27 in 10.0 mi ESE 3.5 mph - N/A   Clear
2:35 AM 53.6 °F 43.0 °F 67% 30.27 in 10.0 mi SSE 3.5 mph - N/A   Clear
2:55 AM 52.7 °F 42.6 °F 69% 30.28 in 10.0 mi SE 3.5 mph - N/A   Clear
3:15 AM 51.1 °F 42.4 °F 72% 30.28 in 10.0 mi ESE 3.5 mph - N/A   Clear
3:36 AM 50.9 °F 42.6 °F 73% 30.27 in 10.0 mi SE 4.6 mph - N/A   Clear
3:55 AM 50.0 °F 42.3 °F 75% 30.27 in 10.0 mi SE 3.5 mph - N/A   Clear
4:16 AM 50.2 °F 43.0 °F 76% 30.27 in 10.0 mi ESE 3.5 mph - N/A   Clear
4:35 AM 50.9 °F 42.8 °F 74% 30.27 in 10.0 mi ESE 3.5 mph - N/A   Clear
4:56 AM 50.0 °F 42.8 °F 76% 30.28 in 10.0 mi SSE 3.5 mph - N/A   Clear
5:15 AM 50.9 °F 43.7 °F 76% 30.29 in 10.0 mi SSE 4.6 mph - N/A   Clear
5:36 AM 49.1 °F 43.7 °F 82% 30.29 in 10.0 mi Calm Calm - N/A   Clear
5:55 AM 49.3 °F 44.4 °F 83% 30.30 in 10.0 mi Calm Calm - N/A   Clear
6:15 AM 49.6 °F 44.6 °F 83% 30.30 in 10.0 mi SE 4.6 mph - N/A   Clear
6:35 AM 51.1 °F 45.1 °F 80% 30.30 in 10.0 mi SE 4.6 mph - N/A   Clear
6:55 AM 53.6 °F 45.1 °F 73% 30.31 in 10.0 mi ESE 3.5 mph - N/A   Clear
7:16 AM 56.5 °F 45.7 °F 67% 30.31 in 10.0 mi SE 4.6 mph - N/A   Clear
7:35 AM 58.6 °F 45.1 °F 61% 30.31 in 10.0 mi SE 3.5 mph - N/A   Clear
7:55 AM 61.3 °F 45.7 °F 56% 30.30 in 10.0 mi SSE 3.5 mph - N/A   Clear
8:16 AM 63.1 °F 46.8 °F 55% 30.31 in 10.0 mi Calm Calm - N/A   Clear
8:36 AM 64.6 °F 45.1 °F 49% 30.31 in 10.0 mi Calm Calm - N/A   Clear
8:55 AM 67.3 °F 45.1 °F 45% 30.31 in 10.0 mi Calm Calm - N/A   Clear
9:15 AM 69.1 °F 45.9 °F 43% 30.31 in 10.0 mi Calm Calm - N/A   Clear
9:35 AM 70.7 °F 45.9 °F 41% 30.32 in 10.0 mi South 3.5 mph - N/A   Clear
9:56 AM 71.8 °F 48.2 °F 43% 30.31 in 10.0 mi SW 4.6 mph - N/A   Clear
10:16 AM 73.6 °F 46.9 °F 39% 30.31 in 10.0 mi SSE 4.6 mph - N/A   Clear
10:35 AM 75.6 °F 44.8 °F 33% 30.31 in 10.0 mi South 8.1 mph - N/A   Clear
10:56 AM 77.2 °F 38.3 °F 25% 30.30 in 10.0 mi SSW 9.2 mph - N/A   Clear
11:15 AM 78.1 °F 40.1 °F 26% 30.29 in 10.0 mi South 9.2 mph - N/A   Clear
11:36 AM 77.7 °F 41.0 °F 27% 30.29 in 10.0 mi SW 9.2 mph - N/A   Clear
11:55 AM 79.2 °F 39.4 °F 24% 30.29 in 10.0 mi SSW 8.1 mph - N/A   Clear
12:16 PM 79.9 °F 38.8 °F 23% 30.29 in 10.0 mi South 4.6 mph - N/A   Clear
12:36 PM 80.8 °F 42.6 °F 26% 30.28 in 10.0 mi SW 4.6 mph - N/A   Clear
12:55 PM 81.7 °F 41.7 °F 24% 30.28 in 10.0 mi SW 5.8 mph - N/A   Clear
1:16 PM 81.7 °F 42.3 °F 25% 30.28 in 10.0 mi WSW 5.8 mph - N/A   Clear
1:35 PM 82.4 °F 38.5 °F 21% 30.26 in 10.0 mi WSW 6.9 mph - N/A   Clear
1:55 PM 83.1 °F 36.9 °F 19% 30.26 in 10.0 mi SW 5.8 mph - N/A   Clear
2:15 PM 84.4 °F 36.7 °F 18% 30.25 in 7.0 mi WSW 5.8 mph - N/A   Clear
2:35 PM 84.2 °F 31.6 °F 15% 30.25 in 10.0 mi SSW 8.1 mph - N/A   Clear
2:55 PM 85.3 °F 31.5 °F 14% 30.25 in 10.0 mi SSW 5.8 mph - N/A   Clear
3:16 PM 85.5 °F 32.5 °F 15% 30.24 in 10.0 mi SW 5.8 mph - N/A   Clear
3:35 PM 85.3 °F 31.8 °F 15% 30.23 in 10.0 mi SSW 6.9 mph - N/A   Clear
3:56 PM 86.0 °F 26.2 °F 11% 30.23 in 3.0 mi SSW 6.9 mph - N/A   Haze
4:15 PM 86.2 °F 32.0 °F 14% 30.22 in 10.0 mi WSW 5.8 mph - N/A   Clear
4:36 PM 86.0 °F 35.1 °F 16% 30.22 in 7.0 mi SW 5.8 mph - N/A   Clear
4:55 PM 85.8 °F 33.6 °F 15% 30.21 in 10.0 mi SSW 3.5 mph - N/A   Clear
5:16 PM 85.6 °F 31.3 °F 14% 30.21 in 7.0 mi SW 5.8 mph - N/A   Clear
5:36 PM 86.2 °F 33.4 °F 15% 30.20 in 10.0 mi South 4.6 mph - N/A   Clear
5:55 PM 86.0 °F 33.4 °F 15% 30.20 in 10.0 mi South 6.9 mph - N/A   Clear
6:35 PM 84.9 °F 33.8 °F 16% 30.19 in 5.0 mi South 4.6 mph - N/A   Haze
6:55 PM 83.7 °F 36.5 °F 19% 30.19 in 10.0 mi Calm Calm - N/A   Clear
7:15 PM 82.4 °F 39.9 °F 22% 30.19 in 2.5 mi South 3.5 mph - N/A   Haze
7:35 PM 79.7 °F 43.3 °F 28% 30.19 in 10.0 mi Calm Calm - N/A   Clear
7:55 PM 78.8 °F 46.4 °F 32% 30.19 in 10.0 mi South 3.5 mph - N/A   Clear
8:15 PM 76.5 °F 49.3 °F 38% 30.18 in 10.0 mi SSE 4.6 mph - N/A   Clear
8:36 PM 74.3 °F 50.5 °F 43% 30.18 in 10.0 mi SSE 4.6 mph - N/A   Clear
8:55 PM 74.3 °F 48.0 °F 39% 30.18 in 10.0 mi SSE 4.6 mph - N/A   Clear
9:16 PM 72.0 °F 49.6 °F 45% 30.18 in 10.0 mi Calm Calm - N/A   Clear
9:35 PM 69.8 °F 50.0 °F 49% 30.19 in 10.0 mi Calm Calm - N/A   Clear
9:56 PM 70.0 °F 48.7 °F 47% 30.18 in 10.0 mi SSE 3.5 mph - N/A   Clear
10:15 PM 69.3 °F 48.6 °F 48% 30.18 in 10.0 mi Calm Calm - N/A   Clear
10:36 PM 67.8 °F 49.3 °F 51% 30.19 in 10.0 mi Calm Calm - N/A   Clear
10:55 PM 68.0 °F 48.9 °F 50% 30.19 in 10.0 mi Calm Calm - N/A   Clear
11:15 PM 67.1 °F 48.9 °F 52% 30.19 in 10.0 mi SE 3.5 mph - N/A   Clear
11:35 PM 66.2 °F 49.1 °F 54% 30.19 in 10.0 mi SE 3.5 mph - N/A   Clear
11:55 PM 67.5 °F 48.0 °F 50% 30.19 in 10.0 mi SSE 3.5 mph - N/A   Clear